Tracking 21496 objects as of 30-Sep-2020
HD Live streaming from Space Station
objects crossing your sky now

STARLINK-1665

Track STARLINK-1665 now!
10-day predictions
STARLINK-1665 is classified as:


NORAD ID: 46356
Int'l Code: 2020-062AH
Perigee: 400.7 km
Apogee: 402.6 km
Inclination: 53.0 °
Period: 92.4 minutes
Semi major axis: 6772 km
RCS: Unknown
Launch date: September 3, 2020
Source: United States (US)
Launch site: AIR FORCE EASTERN TEST RANGE (AFETR)
aabbcc
Your satellite tracking list
Your tracking list is empty




NASA's NSSDC Master Catalog

Two Line Element Set (TLE):
1 46356U 20062AH  20273.83334491 -.01093971 +00000-0 -16023-1 0  9998
2 46356 052.9997 300.4872 0001336 063.5166 067.5773 15.57634162001816
Source of the keplerian elements: AFSPC